Flag for Kyrgyzstan Weather past 2 weeks in Jalal-Abad, Kyrgyzstan

Now
93 °F

Passing clouds.


Feels Like: 90 °F
Forecast: 69 / 94 °F
Wind: 8 mph from Southeast

Location: Kashi Airport

Current Time: Jul 23, 2014 at 12:51:29 PM

Latest Report: Jul 23, 2014 at 12:00 PM


Visibility: N/A

Pressure: 29.86 "Hg

Humidity: 20%

Dew point: 46 °F

Location of Jalal-AbadLocation

Historic Weather in Jalal-Abad — Graph

°F

Jalal-Abad temperature yesterday

Maximum temperature yesterday: 91 °F (at 3:00 PM)
Minimum temperature yesterday: 72 °F (at 4:00 AM)
Average temperature yesterday: 82 °F

Past Weeks' High & Low Weather Summary

 TemperatureHumidityPressure
High97 °F (Jul 15, 3:00 PM)78% (Jul 18, 3:00 AM)30.01 "Hg (Jul 18, 3:00 AM)
Low63 °F (Jul 18, 6:00 AM)9% (Jul 16, 12:00 PM)29.59 "Hg (Jul 15, 5:00 PM)
Average81 °F29%29.86 "Hg
* Reported Jul 8 11:00 AM — Jul 23 11:00 AM, Jalal-Abad, Weather by CustomWeather, © 2014

Note: Actual official high and low records may vary slightly from our data, if they occured in-between our weather recording intervals... More about our weather records

Advertising

Jalal-Abad weather history for previous 24 hours

 ConditionsComfort  
Time TempWeatherWind HumidityBarometerVisibility
11:00 AM
Jul 23
90 °FPassing clouds.8 mph27%29.89 "HgN/A
10:00 AM90 °FSunny.3 mph24%29.89 "Hg10 mi
9:00 AM88 °FSunny.8 mph21%29.89 "Hg10 mi
8:00 AM82 °FSunny.8 mph26%29.89 "Hg10 mi
7:00 AM79 °FSunny.8 mph30%29.89 "Hg10 mi
6:00 AM77 °FSunny.8 mph34%29.89 "Hg10 mi
5:00 AM77 °FClear.8 mph34%29.89 "Hg10 mi
10:00 PM
Jul 22
84 °FClear.6 mph27%29.92 "Hg10 mi
9:00 PM88 °FClear.No wind24%29.92 "Hg10 mi
8:00 PM88 °FSunny.1 mph24%29.89 "Hg10 mi
7:00 PM90 °FPassing clouds.8 mph24%29.89 "HgN/A
6:00 PM90 °FSunny.6 mph26%29.89 "Hg10 mi
5:00 PM90 °FPassing clouds.8 mph22%29.89 "HgN/A
4:00 PM90 °FSunny.3 mph22%29.89 "Hg10 mi
3:00 PM91 °FPassing clouds.8 mph20%29.92 "HgN/A
2:00 PM90 °FPassing clouds.6 mph21%29.95 "HgN/A
1:00 PM90 °FSunny.6 mph22%29.95 "Hg10 mi
12:00 PM86 °FSunny.8 mph25%29.98 "Hg10 mi
Weather by CustomWeather, © 2014

See weather overviewHow to use our weather pages